La Grande, OR

10:51 PM PDT on October 20, 2019 (GMT -0700)
La Grande-Union County

Weather History for KLGD - August, 2019

Change the Weather History Date:

Wednesday, August 21, 2019

  Actual Average Record
Temperature  
Mean Temperature 74 °F -  
Max Temperature 89 °F 81 °F 99 °F (1977)
Min Temperature 60 °F 48 °F 37 °F (1996)
Cooling Degree Days 9    
Growing Degree Days 24 (Base 50)    
Moisture  
Dew Point 51 °F    
Average Humidity 51    
Maximum Humidity 82    
Minimum Humidity 28    
Precipitation  
Precipitation 0.01 in - - ()
Sea Level Pressure  
Sea Level Pressure 30.36 in    
Wind  
Wind Speed 14 mph (NW)    
Max Wind Speed 30 mph    
Max Gust Speed 39 mph    
Visibility 10 miles    
Events Rain , Thunderstorm    
Averages and records for this station are not official NWS values.
T = Trace of Precipitation, MM = Missing Value Source: NWS Daily Summary

Daily Weather History Graph

Daily Weather History Graph

Search for Another Location

Airport or City:

Astronomy

Aug. 21, 2019 Rise Set
Actual Time 6:00 AM PDT 7:49 PM PDT
Civil Twilight 5:28 AM PDT 8:20 PM PDT
Nautical Twilight 4:50 AM PDT 8:59 PM PDT
Astronomical Twilight 4:08 AM PDT 9:40 PM PDT
Moon 10:52 PM PDT 11:56 AM PDT
Length of Visible Light 14h 51m
Length of Day
13h 49m
Waning Gibbous, 68% of the Moon is Illuminated
Aug 21
Waning Gibbous
Aug 23
Last Quarter
Aug 30
New
Sep 5
First Quarter
Sep 13
Full

Hourly Weather History & Observations

Time (PDT) Temp. Dew Point Humidity Pressure Visibility Wind Dir Wind Speed Gust Speed Precip Events Conditions
12:56 AM 75.0 °F 48.0 °F 38% 30.39 in 10.0 mi WNW 15.0 mph 19.6 mph N/A   Clear
1:56 AM 73.0 °F 48.0 °F 41% 30.39 in 10.0 mi WNW 16.1 mph - N/A   Clear
2:56 AM 70.0 °F 48.9 °F 47% 30.40 in 10.0 mi WNW 15.0 mph - N/A   Clear
3:56 AM 69.1 °F 48.9 °F 49% 30.41 in 10.0 mi NW 16.1 mph - N/A   Clear
4:56 AM 69.1 °F 48.9 °F 49% 30.41 in 10.0 mi WNW 19.6 mph - N/A   Clear
5:56 AM 66.9 °F 48.9 °F 52% 30.42 in 10.0 mi WNW 15.0 mph - N/A   Clear
6:56 AM 64.9 °F 48.9 °F 56% 30.43 in 10.0 mi NW 9.2 mph - N/A   Clear
7:56 AM 69.1 °F 50.0 °F 51% 30.43 in 10.0 mi WNW 15.0 mph - N/A   Clear
8:56 AM 73.9 °F 52.0 °F 46% 30.43 in 10.0 mi WNW 13.8 mph - N/A   Clear
9:56 AM 75.9 °F 51.1 °F 42% 30.41 in 10.0 mi NW 11.5 mph - N/A   Clear
10:56 AM 79.0 °F 50.0 °F 36% 30.39 in 10.0 mi NW 9.2 mph - N/A   Clear
11:56 AM 82.9 °F 51.1 °F 33% 30.37 in 9.0 mi Variable 3.5 mph - N/A   Clear
12:56 PM 84.9 °F 51.1 °F 31% 30.34 in 9.0 mi Calm Calm - N/A   Clear
1:56 PM 88.0 °F 51.1 °F 28% 30.32 in 10.0 mi WNW 11.5 mph - N/A   Clear
2:56 PM 88.0 °F 51.1 °F 28% 30.30 in 10.0 mi NW 16.1 mph - N/A   Clear
3:56 PM 81.0 °F 48.0 °F 31% 30.29 in 10.0 mi WNW 21.9 mph 27.6 mph N/A   Clear
4:56 PM 77.0 °F 43.0 °F 30% 30.32 in 10.0 mi WNW 18.4 mph 32.2 mph N/A   Clear
5:56 PM 73.9 °F 44.1 °F 34% 30.35 in 10.0 mi WNW 24.2 mph 34.5 mph N/A   Clear
6:56 PM 70.0 °F 52.0 °F 53% 30.39 in 8.0 mi WNW 29.9 mph 39.1 mph N/A   Clear
7:53 PM 62.6 °F 55.4 °F 77% 30.01 in 10.0 mi NNW 12.7 mph - 0.00 in Rain , Thunderstorm Light Rain
7:56 PM 62.1 °F 55.9 °F 80% 30.41 in 10.0 mi NNW 10.4 mph - 0.00 in Rain , Thunderstorm Light Rain
8:16 PM 60.8 °F 55.4 °F 82% 30.00 in 10.0 mi North 5.8 mph - 0.00 in Rain Light Rain
8:56 PM 62.1 °F 55.0 °F 78% 30.42 in 10.0 mi NW 12.7 mph - 0.01 in Rain Light Rain
9:56 PM 62.1 °F 55.0 °F 78% 30.40 in 10.0 mi WNW 8.1 mph - 0.00 in Rain Light Rain
10:56 PM 62.1 °F 55.0 °F 78% 30.41 in 10.0 mi Variable 3.5 mph - 0.00 in   Overcast
11:56 PM 62.1 °F 55.0 °F 78% 30.40 in 10.0 mi NE 4.6 mph - 0.00 in   Overcast